Regional Weather Roundup
Issued by NWS Albany, NY

Home | Current Version | Previous Version | Graphics & Text | Print | Product List | Glossary On
Versions: 1 2 3 4 5 6 7 8 9 10 11 12 13 14 15 16 17 18 19 20 21 22 23 24 25 26 27 28 29 30 31 32 33 34 35 36 37 38 39 40 41 42 43 44 45 46 47 48 49 50
251
ASUS41 KALY 190910
RWRALY

NEW YORK STATE HOURLY WEATHER ROUNDUP
NATIONAL WEATHER SERVICE ALBANY NY
400 AM EST SUN NOV 19 2017

NOTE: "FAIR" INDICATES FEW OR NO CLOUDS BELOW 12,000 FEET WITH NO
SIGNIFICANT WEATHER AND/OR NO OBSTRUCTIONS TO VISIBILITY.

NYZ032-033-038>043-046>054-057>066-NYZ062>081-082-084-191000-
EAST


CITY           SKY/WX    TMP DP  RH WIND       PRES   REMARKS
ALBANY         LGT RAIN  49  45  86 S18G29    29.15F
GLENS FALLS    LGT RAIN  40  40 100 CALM      29.14F FOG
POUGHKEEPSIE   LGT RAIN  52  49  89 SE3       29.20F
NEWBURGH       CLOUDY    52  50  93 CALM      29.23F
MONTGOMERY     LGT RAIN  43  42  97 S3        29.19F FOG
WHITE PLAINS   LGT RAIN  53  53 100 SW7       29.26F
ISLIP          LGT RAIN  58  57  97 SW17G36   29.30F
NEW YORK CITY  LGT RAIN  59  54  83 SW17G28   29.27F
CENTRAL PARK   LGT RAIN  57  54  89 MISG      29.30F
$$

NYZ005>009-017-018-044>046-055-056-191000-
CENTRAL


CITY           SKY/WX    TMP DP  RH WIND       PRES   REMARKS
FULTON         LGT RAIN  49  47  93 SW15G22   29.04S
SYRACUSE       LGT RAIN  49  47  93 S8        29.03F
ROME           CLOUDY    47  46  97 E8        29.06F
ELMIRA         CLOUDY    52  48  86 W13G24    29.09R
BINGHAMTON     LGT RAIN  50  47  89 SW12      29.08F
MONTICELLO     CLOUDY    50  49  96 SW13G18   29.20F
$$

NYZ026>034-041>043-087-191000-
NORTH


CITY           SKY/WX    TMP DP  RH WIND       PRES   REMARKS
WATERTOWN      HVY RAIN  42  42 100 N10       29.03F FOG
FORT DRUM      NOT AVBL
OGDENSBURG     RAIN      34  33  97 N10       29.09R WCI  26
MASSENA        RAIN      35  35 100 N7        29.10F FOG     WCI  29
SARANAC LAKE   CLOUDY    41  40  96 VRB3      29.03F
PLATTSBURGH    CLOUDY    43  40  89 SE10      29.09F
$$

NYZ001>004-010>016-019>021-085-191000-
WEST


CITY           SKY/WX    TMP DP  RH WIND       PRES   REMARKS
NIAGARA FALLS  LGT SNOW  36  32  85 NW24G31   29.32R FOG     WCI  24
BUFFALO        LGT SNOW  34  33  96 NW16G26   29.30R FOG     WCI  24
DUNKIRK        FLURRIES  38  36  92 W20G33    29.41R WCI  28
JAMESTOWN      LGT SNOW  33  32  96 NW18      29.37R FOG     WCI  22
WELLSVILLE     LGT RAIN  38  33  82 NW29G37   29.25R WCI  26
ROCHESTER      LGT RAIN  39  38  96 NW21G35   29.18R WCI  29
PENN YAN       LGT RAIN  45  41  86 NW17G31   29.11R
$$

             KEY
       WCI = WIND CHILL INDEX
       VSB = VISIBILITY
       HX  = HEAT INDEX
$$




USA.gov is the U.S. government's official web portal to all federal, state and local government web resources and services.